Flag for Austria Weather past 2 weeks in St. Pölten, Lower Austria, Austria

Now
72 °F

Scattered clouds.


Feels Like: 77 °F
Forecast: 46 / 75 °F
Wind: 10 mph from Southwest

Location: Tulln Airport

Current Time: Apr 26, 2015 at 6:35:27 PM

Latest Report: Apr 26, 2015 at 5:50 PM


Visibility: 25 mi

Pressure: 29.77 "Hg

Humidity: 44%

Dew point: 48 °F

Location of St. PöltenLocation

Historic Weather in St. Pölten — Graph

°F

St. Pölten temperature yesterday

Maximum temperature yesterday: 75 °F (at 2:50 PM)
Minimum temperature yesterday: 39 °F (at 5:50 AM)
Average temperature yesterday: 65 °F

Past Weeks' High & Low Weather Summary

 TemperatureHumidityPressure
High77 °F (Apr 16, 12:50 PM)100% (Apr 13, 5:50 AM)30.45 "Hg (Apr 13, 5:50 AM)
Low36 °F (Apr 19, 5:50 AM)22% (Apr 16, 12:50 PM)29.77 "Hg (Apr 26, 4:50 PM)
Average58 °F54%30.10 "Hg
* Reported Apr 11 4:50 PM — Apr 26 4:50 PM, St. Pölten, Weather by CustomWeather, © 2015

Note: Actual official high and low records may vary slightly from our data, if they occured in-between our weather recording intervals... More about our weather records

Advertising

St. Pölten weather history for previous 24 hours

 ConditionsComfort  
Time TempWeatherWind HumidityBarometerVisibility
4:50 PM
Sun, Apr 26
72 °FPassing clouds.7 mph47%29.77 "Hg25 mi
3:50 PM72 °FPassing clouds.10 mph47%29.80 "Hg25 mi
2:50 PM72 °FScattered clouds.9 mph50%29.80 "Hg25 mi
1:50 PM68 °FScattered clouds.14 mph53%29.83 "Hg25 mi
12:50 PM68 °FBroken clouds.16 mph53%29.86 "Hg25 mi
11:50 AM66 °FBroken clouds.13 mph64%29.86 "Hg25 mi
10:50 AM64 °FPartly sunny.14 mph64%29.86 "Hg22 mi
9:50 AM63 °FPartly sunny.10 mph73%29.86 "Hg22 mi
8:50 AM61 °FPartly sunny.10 mph72%29.86 "Hg19 mi
7:50 AM57 °FPartly sunny.7 mph77%29.86 "Hg19 mi
6:50 AM55 °FBroken clouds.5 mph77%29.86 "Hg19 mi
5:50 AM55 °FPartly cloudy.6 mph72%29.86 "Hg16 mi
10:50 PM
Sat, Apr 25
64 °FPassing clouds.7 mph49%29.80 "Hg19 mi
9:50 PM66 °FPassing clouds.13 mph46%29.80 "Hg19 mi
8:50 PM68 °FPartly sunny.15 mph40%29.80 "Hg22 mi
7:50 PM70 °FPartly sunny.12 mph38%29.80 "Hg37 mi
6:50 PM73 °FPartly sunny.12 mph33%29.80 "Hg37 mi
Weather by CustomWeather, © 2015

See weather overviewHow to use our weather pages